Regional Weather Roundup
Issued by NWS

Home | Current Version | Previous Version | Text Only | Print | Product List | Glossary Off
Versions: 1 2 3 4 5 6 7 8 9 10 11 12 13 14 15 16 17 18 19 20 21 22 23 24 25 26 27 28 29 30 31 32 33 34 35 36 37 38 39 40 41 42 43 44 45 46 47 48 49 50

000
ASUS43 KBIS 171210
RWRND

NORTH DAKOTA REGIONAL WEATHER ROUNDUP
NATIONAL WEATHER SERVICE BISMARCK ND
600 AM CST WED DEC 17 2014

NOTE: "FAIR" INDICATES FEW OR NO CLOUDS BELOW 12,000 FEET WITH NO
SIGNIFICANT WEATHER AND/OR OBSTRUCTIONS TO VISIBILITY.


NDZ001>003-009>011-017-171300-
NORTHWEST NORTH DAKOTA

CITY           SKY/WX    TMP DP  RH WIND       PRES   REMARKS
WILLISTON      CLOUDY    19  13  77 SE9       30.17F WCI   8
6HR MIN TEMP:  19; 6HR MAX TEMP:  22;

MINOT          MOCLDY     7   3  84 SE3       30.26S
MINOT AFB      CLOUDY    12  11  96 SE6       30.26S WCI   2
$$

NDZ018>021-031>035-040>046-171300-
SOUTHWEST NORTH DAKOTA

CITY           SKY/WX    TMP DP  RH WIND       PRES   REMARKS
BISMARCK       FLURRIES  14  11  87 SE5       30.28F WCI   6
6HR MIN TEMP:  14; 6HR MAX TEMP:  14; 6HR PCP: TRACE;

DICKINSON      CLOUDY    16  12  84 SE14      30.12F WCI   2
GARRISON         N/A     15  12  88 S9        30.23F WCI   3
6HR MIN TEMP:  15; 6HR MAX TEMP:  16;

HETTINGER ARPT CLOUDY    14  12  92 SE14      30.13F WCI  -1
$$

NDZ004>008-012>016-024-026-027-054-171300-
NORTHEAST NORTH DAKOTA

CITY           SKY/WX    TMP DP  RH WIND       PRES   REMARKS
GRAND FORKS    PTCLDY     1  -3  83 NW6       30.37F WCI -10
GRND FRKS AFB  MOCLDY     1  -1  94 N5        30.37F WCI  -9
DEVILS LAKE    PTCLDY     1  -8  66 CALM      30.30S
$$

NDZ022-023-025-028>030-036>039-047>053-171300-
SOUTHEAST NORTH DAKOTA

CITY           SKY/WX    TMP DP  RH WIND       PRES   REMARKS
FARGO          PTCLDY     3  -2  79 N6        30.37S WCI  -8
6HR MIN TEMP:   2; 6HR MAX TEMP:   6;

JAMESTOWN      PTCLDY     0  -4  83 CALM      30.31R
$$



USA.gov is the U.S. government's official web portal to all federal, state and local government web resources and services.